Shreveport, LA

3:44 AM CDT on April 28, 2017 (GMT -0500)
Shreveport Regional

Weather History for KSHV - March, 2014

Change the Weather History Date:

Saturday, March 29, 2014

  Actual Average Record
Temperature  
Mean Temperature 61 °F 61 °F  
Max Temperature 73 °F 73 °F 89 °F (1875)
Min Temperature 48 °F 49 °F 32 °F (1994)
Degree Days  
Heating Degree Days 4 5  
Month to date heating degree days 315 240  
Since 1 July heating degree days 2426 2122  
Cooling Degree Days 0 1  
Month to date cooling degree days 13 27  
Year to date cooling degree days 19 37  
Growing Degree Days 13 (Base 50)    
Moisture  
Dew Point 49 °F    
Average Humidity 62    
Maximum Humidity 93    
Minimum Humidity 31    
Precipitation  
Precipitation 0.00 in 0.15 in 3.78 in (1922)
Month to date precipitation 4.02 3.85  
Year to date precipitation 7.46 12.80  
Snow  
Snow 0.00 in - - ()
Month to date snowfall T  
Since 1 July snowfall 1.0  
Snow Depth 0.00 in    
Sea Level Pressure  
Sea Level Pressure 30.11 in    
Wind  
Wind Speed 8 mph (North)    
Max Wind Speed 21 mph    
Max Gust Speed 26 mph    
Visibility 10 miles    
Events      
T = Trace of Precipitation, MM = Missing Value Source: NWS Daily Summary

Daily Weather History Graph

Daily Weather History Graph

Search for Another Location

Airport or City:

Trip Planner

Search our weather history database for the weather conditions in past years. The results will help you decide how hot, cold, wet, or windy it might be!

Date:

Astronomy

Mar. 29, 2014 Rise Set
Actual Time 7:07 AM CDT 7:33 PM CDT
Civil Twilight 6:42 AM CDT 7:57 PM CDT
Nautical Twilight 6:13 AM CDT 8:26 PM CDT
Astronomical Twilight 5:44 AM CDT 8:56 PM CDT
Moon 6:12 AM CDT (3/29) 6:41 PM CDT (3/29)
Length of Visible Light 13h 15m
Length of Day
12h 25m
Waning Crescent, 2% of the Moon is Illuminated
Mar 29
Waning Crescent
Mar 30
New
Apr 7
First Quarter
Apr 15
Full
Apr 22
Last Quarter

Hourly Weather History & Observations

Time (CDT) Temp. Dew Point Humidity Pressure Visibility Wind Dir Wind Speed Gust Speed Precip Events Conditions
12:56 AM 60.1 °F 57.9 °F 93% 29.96 in 9.0 mi Calm Calm - N/A   Mostly Cloudy
1:56 AM 59.0 °F 57.0 °F 93% 29.96 in 7.0 mi NW 5.8 mph - N/A   Clear
2:12 AM 59.0 °F 57.2 °F 94% 29.98 in 7.0 mi NNW 9.2 mph - N/A   Scattered Clouds
2:20 AM 60.8 °F 57.2 °F 88% 29.97 in 10.0 mi NW 10.4 mph - N/A   Mostly Cloudy
2:56 AM 60.1 °F 57.9 °F 93% 29.97 in 9.0 mi NW 9.2 mph - N/A   Overcast
3:56 AM 60.1 °F 57.9 °F 93% 29.99 in 9.0 mi North 12.7 mph - N/A   Overcast
4:56 AM 57.9 °F 55.9 °F 93% 30.01 in 10.0 mi NNW 10.4 mph - N/A   Overcast
5:32 AM 57.2 °F 53.6 °F 88% 30.05 in 10.0 mi NNW 15.0 mph - N/A   Overcast
5:56 AM 57.9 °F 54.0 °F 87% 30.06 in 10.0 mi North 17.3 mph - N/A   Overcast
6:48 AM 55.4 °F 53.6 °F 94% 30.08 in 10.0 mi North 12.7 mph - N/A   Scattered Clouds
6:56 AM 55.9 °F 52.0 °F 87% 30.08 in 10.0 mi North 12.7 mph - N/A   Partly Cloudy
7:56 AM 55.9 °F 52.0 °F 87% 30.12 in 10.0 mi North 11.5 mph - N/A   Partly Cloudy
8:56 AM 57.9 °F 51.1 °F 78% 30.15 in 10.0 mi North 12.7 mph - N/A   Partly Cloudy
9:56 AM 61.0 °F 52.0 °F 72% 30.17 in 10.0 mi NNW 11.5 mph - N/A   Partly Cloudy
10:56 AM 64.9 °F 50.0 °F 58% 30.20 in 10.0 mi North 6.9 mph - N/A   Partly Cloudy
11:56 AM 68.0 °F 45.0 °F 43% 30.21 in 10.0 mi North 15.0 mph - N/A   Partly Cloudy
12:56 PM 70.0 °F 44.1 °F 39% 30.21 in 10.0 mi NNE 15.0 mph 18.4 mph N/A   Partly Cloudy
1:56 PM 70.0 °F 39.0 °F 32% 30.19 in 10.0 mi NNE 15.0 mph 21.9 mph N/A   Partly Cloudy
2:56 PM 72.0 °F 44.1 °F 37% 30.18 in 10.0 mi NNE 11.5 mph 19.6 mph N/A   Partly Cloudy
3:56 PM 72.0 °F 43.0 °F 35% 30.17 in 10.0 mi NE 10.4 mph 19.6 mph N/A   Partly Cloudy
4:56 PM 72.0 °F 41.0 °F 33% 30.15 in 10.0 mi Calm Calm - N/A   Partly Cloudy
5:56 PM 72.0 °F 39.9 °F 31% 30.15 in 10.0 mi North 6.9 mph - N/A   Partly Cloudy
6:56 PM 69.1 °F 37.9 °F 32% 30.16 in 10.0 mi NNE 5.8 mph - N/A   Partly Cloudy
7:56 PM 66.9 °F 36.0 °F 32% 30.17 in 10.0 mi NNE 3.5 mph - N/A   Partly Cloudy
8:56 PM 55.9 °F 43.0 °F 62% 30.19 in 10.0 mi WSW 3.5 mph - N/A   Partly Cloudy
9:56 PM 55.0 °F 43.0 °F 64% 30.21 in 10.0 mi Calm Calm - N/A   Partly Cloudy
10:56 PM 53.1 °F 43.0 °F 69% 30.21 in 10.0 mi Calm Calm - N/A   Clear
11:56 PM 50.0 °F 43.0 °F 77% 30.22 in 10.0 mi Calm Calm - N/A   Clear